TimeCST,TemperatureF,Dew PointF,Humidity,Sea Level PressureIn,VisibilityMPH,Wind Direction,Wind SpeedMPH,Gust SpeedMPH,PrecipitationIn,Events,Conditions,WindDirDegrees,DateUTC
12:15 AM,29.8,22.8,75,30.23,10.0,Calm,Calm,-,N/A,,Clear,0,2012-12-13 06:15:00
12:35 AM,28.9,22.3,76,30.23,10.0,Calm,Calm,-,N/A,,Clear,0,2012-12-13 06:35:00
12:55 AM,28.6,22.3,77,30.23,10.0,Calm,Calm,-,N/A,,Clear,0,2012-12-13 06:55:00
1:15 AM,29.1,21.9,74,30.23,10.0,Calm,Calm,-,N/A,,Clear,0,2012-12-13 07:15:00
1:35 AM,29.3,22.6,76,30.22,10.0,Calm,Calm,-,N/A,,Clear,0,2012-12-13 07:35:00
1:55 AM,30.6,23.2,74,30.22,10.0,Calm,Calm,-,N/A,,Clear,0,2012-12-13 07:55:00
2:15 AM,29.5,23.0,77,30.22,10.0,Calm,Calm,-,N/A,,Clear,0,2012-12-13 08:15:00
2:35 AM,29.5,23.2,77,30.22,10.0,Calm,Calm,-,N/A,,Clear,0,2012-12-13 08:35:00
2:55 AM,28.6,22.8,79,30.22,10.0,Calm,Calm,-,N/A,,Clear,0,2012-12-13 08:55:00
3:15 AM,28.2,22.6,80,30.22,10.0,Calm,Calm,-,N/A,,Clear,0,2012-12-13 09:15:00
3:35 AM,28.4,22.5,78,30.22,10.0,Calm,Calm,-,N/A,,Clear,0,2012-12-13 09:35:00
3:55 AM,26.2,22.3,85,30.21,10.0,Calm,Calm,-,N/A,,Clear,0,2012-12-13 09:55:00
4:15 AM,29.1,23.9,81,30.21,10.0,Calm,Calm,-,N/A,,Clear,0,2012-12-13 10:15:00
4:35 AM,26.8,23.2,86,30.21,10.0,Calm,Calm,-,N/A,,Clear,0,2012-12-13 10:35:00
4:55 AM,27.9,23.7,84,30.21,10.0,Calm,Calm,-,N/A,,Clear,0,2012-12-13 10:55:00
5:15 AM,28.4,23.7,83,30.21,10.0,Calm,Calm,-,N/A,,Clear,0,2012-12-13 11:15:00
5:35 AM,28.0,23.9,84,30.21,10.0,Calm,Calm,-,N/A,,Clear,0,2012-12-13 11:35:00
5:55 AM,28.2,24.4,86,30.22,10.0,Calm,Calm,-,N/A,,Clear,0,2012-12-13 11:55:00
6:15 AM,27.5,23.7,86,30.22,10.0,Calm,Calm,-,N/A,,Clear,0,2012-12-13 12:15:00
6:35 AM,27.1,23.7,87,30.23,10.0,Calm,Calm,-,N/A,,Clear,0,2012-12-13 12:35:00
6:55 AM,25.7,22.5,88,30.23,10.0,Calm,Calm,-,N/A,,Clear,0,2012-12-13 12:55:00
7:15 AM,27.3,23.9,87,30.23,10.0,Calm,Calm,-,N/A,,Clear,0,2012-12-13 13:15:00
7:35 AM,27.3,23.0,84,30.24,10.0,Calm,Calm,-,N/A,,Clear,0,2012-12-13 13:35:00
7:55 AM,28.2,25.2,88,30.24,10.0,Calm,Calm,-,N/A,,Clear,0,2012-12-13 13:55:00
8:15 AM,30.7,27.7,88,30.24,10.0,Calm,Calm,-,N/A,,Clear,0,2012-12-13 14:15:00
8:35 AM,35.6,31.6,85,30.24,10.0,Calm,Calm,-,N/A,,Clear,0,2012-12-13 14:35:00
8:55 AM,41.9,34.9,76,30.25,10.0,Calm,Calm,-,N/A,,Clear,0,2012-12-13 14:55:00
9:15 AM,44.4,36.3,73,30.25,10.0,Calm,Calm,-,N/A,,Clear,0,2012-12-13 15:15:00
9:35 AM,50.9,42.1,72,30.25,10.0,South,11.5,-,N/A,,Clear,170,2012-12-13 15:35:00
9:55 AM,52.9,42.8,69,30.26,10.0,South,11.5,-,N/A,,Clear,170,2012-12-13 15:55:00
10:15 AM,54.5,43.9,67,30.26,10.0,South,10.4,-,N/A,,Scattered Clouds,170,2012-12-13 16:15:00
10:35 AM,55.6,44.1,65,30.26,10.0,South,9.2,16.1,N/A,,Clear,180,2012-12-13 16:35:00
10:55 AM,57.0,44.6,63,30.25,10.0,SSE,6.9,-,N/A,,Clear,160,2012-12-13 16:55:00
11:15 AM,57.9,45.1,62,30.25,10.0,South,10.4,16.1,N/A,,Clear,180,2012-12-13 17:15:00
11:35 AM,59.2,46.0,62,30.24,10.0,SSW,17.3,21.9,N/A,,Clear,200,2012-12-13 17:35:00
11:55 AM,61.0,46.8,59,30.24,10.0,SSW,16.1,23.0,N/A,,Scattered Clouds,200,2012-12-13 17:55:00
12:15 PM,61.3,47.3,60,30.23,10.0,South,15.0,21.9,N/A,,Scattered Clouds,190,2012-12-13 18:15:00
12:35 PM,61.3,48.2,62,30.21,10.0,SSW,10.4,20.7,N/A,,Mostly Cloudy,200,2012-12-13 18:35:00
12:55 PM,61.9,47.5,59,30.20,10.0,SSW,10.4,21.9,N/A,,Mostly Cloudy,200,2012-12-13 18:55:00
1:15 PM,61.2,47.1,60,30.19,10.0,SSW,10.4,-,N/A,,Overcast,210,2012-12-13 19:15:00
1:35 PM,61.3,47.1,60,30.18,10.0,South,9.2,-,N/A,,Overcast,180,2012-12-13 19:35:00
1:55 PM,61.2,46.9,60,30.18,10.0,South,12.7,-,N/A,,Overcast,190,2012-12-13 19:55:00
2:15 PM,61.3,47.3,60,30.16,10.0,South,9.2,-,N/A,,Overcast,170,2012-12-13 20:15:00
2:35 PM,60.8,47.5,62,30.16,10.0,South,11.5,-,N/A,,Overcast,180,2012-12-13 20:35:00
2:55 PM,60.4,47.7,63,30.16,10.0,SSE,9.2,-,N/A,,Overcast,160,2012-12-13 20:55:00
3:15 PM,59.9,47.7,64,30.16,10.0,South,12.7,16.1,N/A,,Overcast,170,2012-12-13 21:15:00
3:35 PM,58.6,47.5,66,30.16,10.0,SSE,8.1,-,N/A,,Overcast,160,2012-12-13 21:35:00
3:55 PM,58.6,47.7,67,30.16,10.0,SSE,10.4,-,N/A,,Overcast,160,2012-12-13 21:55:00
4:35 PM,57.7,47.7,69,30.16,10.0,South,9.2,-,N/A,,Overcast,180,2012-12-13 22:35:00
5:35 PM,56.8,46.8,69,30.16,10.0,South,10.4,-,N/A,,Overcast,170,2012-12-13 23:35:00
6:15 PM,56.5,46.4,69,30.16,10.0,SSE,6.9,-,N/A,,Overcast,160,2012-12-14 00:15:00
6:55 PM,56.3,46.4,69,30.17,10.0,South,6.9,-,N/A,,Overcast,170,2012-12-14 00:55:00
7:15 PM,56.3,46.0,68,30.18,10.0,South,6.9,-,N/A,,Overcast,170,2012-12-14 01:15:00
7:55 PM,56.1,45.3,67,30.18,10.0,South,5.8,-,N/A,,Overcast,170,2012-12-14 01:55:00
8:15 PM,55.9,44.6,66,30.18,10.0,SSE,6.9,-,N/A,,Overcast,160,2012-12-14 02:15:00
8:35 PM,55.9,44.2,65,30.18,10.0,SSE,6.9,-,N/A,,Overcast,160,2012-12-14 02:35:00
8:55 PM,55.8,43.7,64,30.17,10.0,SSE,5.8,-,N/A,,Overcast,160,2012-12-14 02:55:00
9:15 PM,55.8,42.8,62,30.18,10.0,South,8.1,-,N/A,,Overcast,170,2012-12-14 03:15:00
9:35 PM,55.8,42.3,60,30.17,10.0,SSE,10.4,16.1,N/A,,Overcast,160,2012-12-14 03:35:00
9:55 PM,55.6,41.4,59,30.17,10.0,SSE,6.9,-,N/A,,Overcast,160,2012-12-14 03:55:00
10:15 PM,55.6,41.4,59,30.17,10.0,SSE,8.1,-,N/A,,Overcast,160,2012-12-14 04:15:00
10:35 PM,55.4,41.4,59,30.17,10.0,South,6.9,-,N/A,,Overcast,170,2012-12-14 04:35:00
10:55 PM,55.4,41.9,60,30.18,10.0,SSE,5.8,-,N/A,,Overcast,160,2012-12-14 04:55:00
11:15 PM,55.2,41.9,61,30.18,10.0,SSE,6.9,-,N/A,,Overcast,160,2012-12-14 05:15:00
11:55 PM,54.9,43.5,66,30.16,10.0,SSE,5.8,-,N/A,,Overcast,160,2012-12-14 05:55:00